Weather History for KLNK - January, 1998

Change the Weather History Date:

Wednesday, January 28, 1998

  Actual Average Record
Temperature  
Mean Temperature 40 °F 25 °F  
Max Temperature 52 °F 36 °F 63 °F (1931)
Min Temperature 27 °F 14 °F -22 °F (1915)
Degree Days  
Heating Degree Days 26 40  
Month to date heating degree days 1136  
Since 1 July heating degree days 3581  
Cooling Degree Days 0 0  
Month to date cooling degree days 0  
Year to date cooling degree days 0  
Moisture  
Dew Point 33 °F    
Average Humidity 79    
Maximum Humidity 93    
Minimum Humidity 54    
Precipitation  
Precipitation 1.18 in 0.03 in 0.90 in (1891)
Month to date precipitation 0.57  
Year to date precipitation 0.57  
Snow  
Snow 0.00 in 0.20 in - ()
Month to date snowfall 4.8  
Since 1 July snowfall 13.5  
Snow Depth 1.00 in    
Sea Level Pressure  
Sea Level Pressure 29.90 in    
Wind  
Wind Speed 7 mph (NW)    
Max Wind Speed 17 mph    
Max Gust Speed 28 mph    
Visibility 10 miles    
Events Fog    
T = Trace of Precipitation, MM = Missing Value Source: NWS Daily Summary

Daily Weather History Graph

Daily Weather History Graph

Search for Another Location

Airport or City:

Trip Planner

Search our weather history database for the weather conditions in past years. The results will help you decide how hot, cold, wet, or windy it might be!

Date:

Astronomy

Jan. 28, 1998 Rise Set
Actual Time 7:41 AM CST 5:39 PM CST
Civil Twilight 7:11 AM CST 6:08 PM CST
Nautical Twilight 6:38 AM CST 6:41 PM CST
Astronomical Twilight 6:06 AM CST 7:14 PM CST
Moon 7:48 AM CST (1/28) 6:31 PM CST (1/28)
Length of Visible Light 10h 57m
Length of Day
9h 58m
New Moon, 0% of the Moon is Illuminated
Jan 28
New Moon
Feb 3
First Quarter
Feb 11
Full
Feb 19
Last Quarter
Feb 26
New

Hourly Weather History & Observations

Time (CST) Temp. Windchill Dew Point Humidity Pressure Visibility Wind Dir Wind Speed Gust Speed Precip Events Conditions
12:54 AM 27.0 °F - 25.0 °F 92% 29.89 in 7.0 mi Calm Calm - N/A Fog Patches of Fog
1:54 AM 27.0 °F 23.0 °F 25.0 °F 92% 29.87 in 9.0 mi SSE 3.5 mph - N/A   Clear
2:54 AM 30.9 °F - 28.9 °F 92% 29.86 in 10.0 mi Calm Calm - N/A   Partly Cloudy
3:54 AM 30.0 °F 25.2 °F 28.0 °F 92% 29.83 in 10.0 mi SSE 4.6 mph - N/A   Clear
4:54 AM 30.9 °F 25.2 °F 28.0 °F 89% 29.81 in 10.0 mi South 5.8 mph - N/A   Clear
5:54 AM 32.0 °F 28.7 °F 28.4 °F 87% 29.82 in 10.0 mi South 3.5 mph - 1.18 in   Clear
6:54 AM 30.0 °F - 27.0 °F 88% 29.83 in 10.0 mi Calm Calm - N/A   Clear
7:54 AM 30.9 °F 26.2 °F 28.0 °F 89% 29.84 in 10.0 mi SW 4.6 mph - N/A   Clear
8:54 AM 33.1 °F 30.0 °F 30.9 °F 92% 29.85 in 8.0 mi SSE 3.5 mph - N/A   Clear
9:54 AM 39.9 °F 37.8 °F 34.0 °F 79% 29.85 in 10.0 mi Variable 3.5 mph - N/A   Clear
10:54 AM 46.0 °F 39.9 °F 34.0 °F 63% 29.86 in 10.0 mi NW 13.8 mph - N/A   Clear
11:54 AM 48.0 °F - 35.1 °F 61% 29.86 in 10.0 mi NW 12.7 mph - N/A   Clear
12:54 PM 50.0 °F - 37.0 °F 61% 29.84 in 10.0 mi NW 16.1 mph - N/A   Clear
1:54 PM 52.0 °F - 36.0 °F 54% 29.82 in 10.0 mi NW 16.1 mph 27.6 mph N/A   Clear
2:54 PM 52.0 °F - 37.0 °F 57% 29.83 in 10.0 mi NW 16.1 mph 25.3 mph N/A   Clear
3:54 PM 51.1 °F - 37.0 °F 59% 29.86 in 10.0 mi NNW 13.8 mph - N/A   Partly Cloudy
4:54 PM 48.9 °F - 37.0 °F 64% 29.90 in 10.0 mi NW 13.8 mph - N/A   Partly Cloudy
5:54 PM 46.0 °F 39.9 °F 37.0 °F 71% 29.93 in 10.0 mi NW 13.8 mph - N/A   Mostly Cloudy
6:54 PM 45.0 °F 38.5 °F 37.0 °F 74% 29.96 in 10.0 mi NW 13.8 mph - N/A   Overcast
7:54 PM 42.1 °F 34.5 °F 37.0 °F 82% 29.99 in 10.0 mi NNW 15.0 mph - N/A   Mostly Cloudy
8:44 PM 41.0 °F 33.5 °F 35.6 °F 81% 29.97 in 10.0 mi NNW 13.8 mph - N/A   Mostly Cloudy
8:54 PM 41.0 °F 33.1 °F 36.0 °F 82% 29.99 in 10.0 mi NW 15.0 mph - N/A   Mostly Cloudy
9:07 PM 41.0 °F 32.5 °F 35.6 °F 81% 29.97 in 10.0 mi NW 17.3 mph - N/A   Scattered Clouds
9:54 PM 39.0 °F 31.4 °F 36.0 °F 89% 30.00 in 10.0 mi NNW 12.7 mph - N/A   Partly Cloudy
10:54 PM 37.0 °F 29.8 °F 34.0 °F 89% 30.02 in 10.0 mi NW 10.4 mph - N/A   Clear
11:43 PM 35.6 °F 29.2 °F 33.8 °F 93% 30.01 in 10.0 mi WNW 8.1 mph - N/A   Mostly Cloudy
11:54 PM 36.0 °F 31.1 °F 33.1 °F 89% 30.04 in 10.0 mi WNW 5.8 mph - N/A   Overcast